RH
80 74 66 72 74 69 75 75 82 84 90 92 94 88 94 89 80 75 74 75 80 80 86 88 88 92 91 91 88 90 98 97 94 96 98 97 96 96 95 93 93 94 94
79 72 67 68 73 71 72 72 76 81 87 95 91 92 96 96 90 82 76 74 74 81 81 88 89 89 92 88 89 88 90 89 96 97 97 96 97 97 92 93 93 91 92
79 76 69 64 71 68 68 69 73 79 81 87 92 92 91 89 88 85 80 77 75 80 83 82 85 90 90 93 91 92 91 94 90 94 96 98 96 97 98 95 95 94 95
76 75 72 67 65 69 70 70 70 77 71 81 84 87 90 91 91 92 82 78 72 78 83 85 84 84 88 90 91 86 93 93 95 95 88 93 96 99 97 95 98 96 96
75 74 75 70 66 72 76 72 71 74 79 80 80 84 79 86 83 84 79 77 75 75 78 79 82 84 87 88 88 90 92 92 93 94 94 92 95 91 98 98 94 96 97
72 70 69 66 70 71 65 69 72 73 75 79 79 80 81 80 81 83 85 84 83 80 78 80 87 88 90 89 88 87 88 91 90 92 91 94 96 96 96 97 97 97 98
64 71 68 68 68 60 58 57 59 65 70 74 82 85 82 83 82 94 96 86 86 84 82 82 85 88 89 89 89 87 86 88 90 91 93 90 91 90 90 91 93 96 96
63 68 68 64 65 59 58 54 55 55 56 63 66 69 74 73 77 76 84 87 82 91 90 81 80 81 82 86 90 90 86 89 92 89 87 90 90 90 91 94 96 95 96
56 63 62 62 65 63 58 54 57 56 56 57 60 64 69 69 70 67 67 70 71 51 70 72 74 75 76 74 82 86 88 88 90 92 90 86 84 86 90 90 92 97 97
62 58 58 58 62 63 58 57 56 55 56 54 56 57 64 68 79 86 78 66 60 65 68 67 67 68 67 67 69 72 72 74 81 80 84 86 86 87 89 91 89 93 99
68 65 64 59 60 63 58 57 52 50 52 52 52 60 84 94 89 81 70 60 58 58 60 62 64 66 68 68 66 57 64 67 69 73 76 75 78 90 92 90 88 88 90
63 61 59 62 63 61 56 52 49 47 46 50 57 65 78 81 95 95 77 60 61 55 51 57 58 58 59 62 71 68 64 64 67 71 73 70 62 82 88 94 92 92 89
56 58 55 56 58 60 53 48 47 47 55 76 88 89 65 79 87 84 70 86 69 55 54 54 58 56 59 54 65 69 66 63 64 70 74 74 76 79 80 81 84 90 79
56 56 53 52 52 52 50 47 47 59 83 89 93 91 94 96 88 84 72 74 71 62 56 56 57 58 54 49 65 68 66 65 63 68 68 68 74 76 73 66 77 76 91
56 57 50 51 48 45 46 48 66 78 77 67 84 91 96 96 96 95 92 73 64 54 51 51 57 59 49 39 65 71 67 67 68 67 63 64 65 64 61 61 73 76 80
61 69 61 44 44 45 57 68 84 84 86 90 94 97 94 95 96 95 93 77 58 51 52 55 57 56 44 56 60 63 64 60 60 65 69 65 60 70 64 61 60 63 76
68 78 86 82 53 59 78 90 94 93 95 98 96 96 95 95 95 92 89 77 59 51 53 56 61 64 64 58 61 59 60 59 66 66 68 63 56 71 70 66 64 66 60
78 86 92 86 93 92 94 96 97 97 98 97 97 95 93 92 90 85 70 58 52 55 57 61 63 65 57 61 61 59 62 66 66 69 71 74 74 75 67 67 69 70 72
94 97 97 97 97 98 99 98 99 97 96 96 96 93 91 90 88 76 65 54 56 60 62 55 66 68 69 61 62 60 63 62 67 62 73 73 74 63 55 63 69 79 77
92 96 97 97 97 98 97 96 96 97 95 94 94 88 77 76 72 55 56 58 64 53 58 58 63 69 71 68 65 59 60 72 62 71 76 64 59 56 58 74 92 90 80
92 94 96 99 100 98 97 97 96 94 93 87 77 62 56 55 57 58 64 64 68 68 78 72 79 77 74 78 65 61 60 58 59 62 66 60 61 58 59 78 95 84 89
96 99 99 100 99 98 93 91 92 86 81 61 51 52 57 56 48 62 66 66 79 84 87 85 83 76 78 71 68 62 60 60 66 70 71 74 66 69 64 69 58 57 65
99 98 99 98 97 94 92 80 60 53 55 56 60 65 65 60 60 64 68 76 86 94 90 85 88 90 71 81 71 66 67 66 65 66 65 58 64 73 73 62 59 55 60
98 98 98 97 95 86 55 59 55 55 62 68 73 76 85 78 85 72 76 84 97 98 91 91 91 95 89 86 80 69 82 84 77 74 83 82 71 58 57 54 53 52 60
94 95 94 88 68 63 64 65 54 67 71 77 82 88 77 86 94 88 97 94 93 94 96 94 92 97 98 82 70 73 74 83 83 94 84 75 75 76 71 70 66 69 66
90 72 60 57 61 64 68 68 68 72 82 88 77 96 96 98 93 98 96 80 75 70 68 67 68 70 66 65 62 71 64 61 87 92 97 96 87 80 77 80 82 79 78
Wind_Speed
4 3 2 1 3 4 6 7 7 8 6 3 3 4 5 6 7 7 10 10 9 10 9 7 7 7 7 8 8 6 4 3 5 3 4 6 8 9 9 7 8 8 9
4 5 5 1 1 2 5 6 6 6 5 3 2 2 2 3 4 5 8 10 10 10 8 8 8 8 6 8 9 9 5 3 4 2 3 4 3 7 10 8 8 11 8
8 7 7 6 3 0 3 4 6 6 6 6 3 3 3 3 4 5 6 8 9 9 10 10 8 7 8 8 8 8 9 4 3 4 2 3 3 2 2 9 8 8 7
5 5 6 5 5 3 1 4 5 6 7 8 5 7 4 3 4 4 4 6 9 9 9 8 8 8 7 8 8 8 7 6 5 4 5 3 3 3 3 1 3 4 4
8 8 8 6 4 5 3 3 5 5 5 6 6 4 5 3 2 3 6 7 7 9 10 10 9 9 6 7 8 9 10 7 5 4 4 4 2 4 3 2 2 3 3
7 6 4 5 4 3 4 3 4 3 4 5 6 6 6 5 5 5 5 4 4 6 9 9 8 8 7 7 7 7 9 9 8 6 6 5 4 3 3 3 3 4 6
7 6 7 7 6 8 7 5 5 3 4 5 5 5 5 5 5 2 2 4 4 4 6 7 8 6 7 7 7 7 8 8 7 8 6 5 5 5 4 3 2 3 2
4 6 8 7 8 8 6 4 5 4 4 5 5 4 5 3 3 3 2 3 3 2 3 5 5 6 6 6 6 5 5 6 6 9 8 6 6 6 5 4 4 2 2
4 7 6 6 6 6 7 8 7 5 5 5 4 4 4 6 5 5 4 3 4 4 5 5 5 6 6 7 5 4 6 5 5 6 6 6 5 6 6 5 5 4 3
6 5 6 7 6 6 7 7 7 8 7 6 5 4 4 5 4 4 5 5 4 5 5 5 5 5 6 7 6 5 6 6 5 5 6 5 4 5 4 5 5 5 3
6 6 6 5 6 5 6 6 6 6 5 5 5 5 4 4 4 3 3 4 4 5 5 5 5 5 5 6 6 6 7 7 7 7 6 7 5 4 4 4 4 5 5
4 5 5 2 4 6 5 5 5 5 4 5 5 5 4 4 3 2 3 4 5 5 4 4 4 5 5 5 4 5 6 6 6 7 6 6 6 5 4 3 5 4 4
6 7 7 5 1 4 5 5 5 5 5 5 5 3 4 4 3 3 3 4 5 4 4 4 5 5 5 5 4 3 4 5 5 5 5 6 6 4 3 3 4 3 4
6 6 6 5 2 4 5 5 5 5 5 5 4 4 2 2 3 4 4 3 3 3 4 4 4 5 6 5 3 0 2 4 5 5 5 5 6 4 4 4 4 3 3
4 6 7 6 1 4 5 5 5 5 4 4 4 3 2 2 2 3 3 5 5 4 3 3 3 4 5 4 5 2 1 2 3 4 5 5 6 10 8 4 4 4 2
3 5 6 7 3 3 5 5 5 4 4 3 3 3 3 2 2 2 2 3 5 5 4 3 3 5 5 9 10 3 1 2 3 4 4 6 6 8 11 10 11 9 5
3 4 4 5 3 3 5 5 4 3 2 3 3 3 3 2 1 1 2 2 4 3 3 3 3 4 5 10 10 10 1 2 3 3 4 5 5 7 5 8 7 7 10
3 3 3 3 4 3 4 4 3 2 3 2 3 3 2 1 1 2 3 3 3 3 3 3 3 4 5 11 11 10 3 3 3 3 3 3 5 5 6 1 3 4 4
2 2 2 2 3 4 1 2 1 1 2 3 3 2 1 1 2 3 3 4 3 3 2 3 3 4 4 10 10 4 2 3 4 4 4 4 4 10 12 3 3 3 3
2 2 3 2 3 3 2 2 2 3 3 1 1 1 3 3 4 5 4 2 2 3 3 4 3 7 4 9 10 6 1 2 3 3 4 7 7 11 12 4 3 4 5
2 2 3 3 1 3 2 2 1 2 1 1 3 4 4 4 5 3 2 2 2 2 3 4 4 5 5 6 9 9 2 3 3 2 3 3 11 11 12 7 2 3 6
2 2 2 1 1 1 1 1 3 2 3 3 4 3 4 4 4 1 2 2 1 2 4 4 4 3 4 7 8 10 8 7 2 3 3 5 13 14 10 6 12 13 7
2 2 1 1 2 3 2 4 3 3 3 3 4 4 4 4 3 3 2 2 1 2 3 3 3 3 4 4 11 9 10 10 6 4 9 15 14 10 6 9 10 11 3
1 1 1 3 4 4 4 3 5 2 3 4 5 4 4 5 3 2 2 2 2 2 3 3 4 4 4 4 4 5 4 9 7 10 7 4 3 5 6 6 5 4 4
2 2 3 4 5 4 5 5 5 3 4 5 4 4 3 4 3 3 2 3 4 5 5 5 5 4 4 6 10 9 5 4 6 2 2 2 2 3 3 3 4 3 4
3 4 4 5 6 5 6 6 5 4 4 4 4 3 3 3 3 2 4 9 12 13 12 13 9 5 11 14 14 14 13 13 6 3 1 1 2 4 4 4 4 3 6
Wind_Direction
235 179 202 223 346 20 2 6 357 353 359 359 360 27 38 25 30 29 29 29 22 18 18 6 1 359 19 7 354 340 332 306 5 300 242 236 232 227 232 222 222 219 219
200 205 210 214 38 349 4 3 1 354 2 344 349 8 23 39 46 21 21 20 21 23 31 23 13 4 14 16 13 352 329 312 8 310 276 258 242 233 235 227 228 230 225
214 210 211 207 183 68 10 12 3 359 359 351 348 20 45 47 5 15 15 15 16 18 21 21 24 9 28 13 2 359 352 326 314 14 275 305 266 319 206 225 227 231 228
217 214 201 195 188 195 74 31 20 14 17 6 26 41 39 36 359 352 7 8 18 18 20 20 16 23 27 12 5 5 355 343 352 314 11 274 315 290 292 303 250 230 237
207 211 210 195 172 152 146 83 54 33 23 35 45 57 67 55 13 11 17 13 13 17 16 18 18 20 16 16 14 10 8 8 0 9 340 352 326 12 325 309 331 26 317
221 222 185 165 158 140 134 133 114 89 55 56 59 69 70 54 41 21 23 5 357 13 15 12 12 13 10 9 11 18 22 13 8 360 25 31 7 2 347 322 359 319 64
218 209 197 191 186 179 179 170 145 103 93 78 61 64 79 72 70 35 21 17 1 10 9 9 7 4 0 6 10 17 25 23 21 9 358 8 23 7 348 355 319 306 39
235 221 217 202 194 189 179 173 158 136 110 100 98 96 96 97 82 54 26 41 33 343 350 16 7 1 3 3 6 19 26 23 20 14 15 12 9 5 8 357 340 317 315
288 249 231 222 211 195 184 175 164 147 138 128 113 85 60 54 46 37 29 18 6 26 16 20 17 8 5 9 359 19 22 22 23 19 11 23 10 9 1 355 2 332 337
17 315 259 222 205 191 181 170 168 168 168 154 145 123 105 90 73 54 26 20 10 10 18 12 12 14 16 9 11 26 17 25 21 32 20 15 11 9 2 8 7 13 336
354 339 312 252 198 169 169 176 171 152 146 145 129 115 97 92 79 53 6 14 21 21 15 8 1 4 10 6 16 18 21 22 19 17 20 11 3 360 5 7 20 19 9
345 323 341 342 181 173 162 159 155 149 154 129 118 117 125 105 76 41 340 35 38 12 16 358 9 359 2 1 12 19 18 24 18 11 8 8 6 1 8 13 15 14 18
354 353 2 7 238 169 163 167 158 152 138 128 127 112 87 102 50 340 38 45 4 8 354 18 1 353 345 346 344 18 15 16 21 10 1 352 351 354 2 12 14 17 15
12 354 350 338 275 173 157 159 158 148 147 147 137 122 116 58 52 26 30 47 25 333 357 2 359 346 329 326 331 65 20 4 12 7 3 350 330 320 353 19 358 10 6
12 352 350 343 339 158 148 142 135 138 153 140 125 149 136 109 46 26 10 354 360 356 343 340 346 340 320 325 319 141 61 353 357 360 2 350 347 0 359 7 342 360 1
357 4 0 353 359 138 134 126 126 132 128 143 162 151 118 97 60 32 5 345 343 347 343 339 340 338 331 315 329 342 130 352 356 356 355 342 6 357 355 356 2 5 356
2 11 6 9 31 129 135 135 130 134 147 167 139 113 105 96 44 360 338 326 305 303 315 318 331 326 319 318 323 325 117 332 331 344 348 342 351 344 313 324 354 353 349
31 25 22 32 29 43 80 108 129 167 180 137 113 109 105 71 330 304 299 287 287 305 304 306 325 327 316 328 325 329 21 357 331 328 324 320 311 314 309 325 350 337 326
100 68 63 59 60 59 46 121 133 168 139 107 114 108 79 295 294 279 283 270 276 288 282 314 318 321 300 320 319 340 354 334 320 306 327 301 313 316 322 345 330 328 323
111 122 93 67 64 5 358 136 149 117 107 95 70 290 267 260 265 262 248 264 267 292 318 319 325 300 319 314 306 317 248 276 280 280 265 306 317 316 315 22 357 325 311
124 88 85 113 58 356 33 77 120 144 124 279 269 260 258 277 270 255 256 259 280 320 307 299 297 284 278 289 305 308 278 268 278 274 259 253 301 302 311 360 242 270 83
89 104 112 114 343 13 44 260 264 223 242 255 286 299 303 294 293 286 265 264 222 285 294 296 293 287 287 300 309 303 310 300 302 273 246 258 290 298 327 6 331 332 12
82 48 129 260 259 260 253 266 276 280 276 291 288 290 295 291 298 286 277 269 250 266 284 272 284 281 297 285 307 312 311 318 310 298 281 303 330 355 17 341 340 333 336
11 355 336 284 282 276 289 278 293 303 286 279 282 282 271 268 267 292 300 285 251 261 261 262 269 267 277 282 292 293 294 296 296 293 303 344 50 354 337 336 326 316 308
339 311 285 283 284 294 288 291 290 277 271 274 273 267 256 283 280 273 231 250 243 223 240 244 243 249 255 270 276 289 284 258 276 128 60 24 352 318 306 296 295 300 304
317 303 294 299 295 295 291 287 271 254 261 268 267 233 237 250 256 266 290 282 272 273 285 293 286 267 291 301 302 308 308 312 6 69 106 248 270 286 292 293 296 295 302